Change the Weather History Date:

Saturday, June 22, 2013

  Actual Average (KLUK) Record (KLUK)
Temperature  
Mean Temperature 78 °F -  
Max Temperature 89 °F 82 °F 98 °F (1988)
Min Temperature 66 °F 62 °F 45 °F (1992)
Cooling Degree Days 12    
Growing Degree Days 28 (Base 50)    
Moisture  
Dew Point 65 °F    
Average Humidity 67    
Maximum Humidity 94    
Minimum Humidity 40    
Precipitation  
Precipitation 0.00 in - - ()
Sea Level Pressure  
Sea Level Pressure 30.15 in    
Wind  
Wind Speed 3 mph ()    
Max Wind Speed 12 mph    
Max Gust Speed -    
Visibility 9.7 miles    
Events      
Averages and records for this station are not official NWS values.
T = Trace of Precipitation, MM = Missing Value Source: Averaged Metar Reports

Daily Weather History Graph

Daily Weather History Graph

Search for Another Location

Airport or City:

Trip Planner

Search our weather history database for the weather conditions in past years. The results will help you decide how hot, cold, wet, or windy it might be!

Date:

Astronomy

Jun. 22, 2013 Rise Set
Actual Time 6:11 AM EDT 9:06 PM EDT
Civil Twilight 5:39 AM EDT 9:38 PM EDT
Nautical Twilight 4:58 AM EDT 10:19 PM EDT
Astronomical Twilight 4:11 AM EDT 11:06 PM EDT
Moon 8:20 PM EDT (6/22) 5:22 AM EDT (6/22)
Length of Visible Light 15h 59m
Length of Day
14h 54m
Waxing Gibbous, 99% of the Moon is Illuminated
Jun 22
Waxing Gibbous
Jun 23
Full
Jun 30
Last Quarter
Jul 8
New
Jul 15
First Quarter

Hourly Weather History & Observations

Time (EDT) Temp. Heat Index Dew Point Humidity Pressure Visibility Wind Dir Wind Speed Gust Speed Precip Events Conditions
12:15 AM 73.4 °F - 66.2 °F 78% 30.15 in 10.0 mi SE 3.5 mph - N/A   Clear
12:36 AM 73.4 °F - 66.2 °F 78% 30.15 in 10.0 mi Calm Calm - N/A   Clear
12:55 AM 71.6 °F - 64.4 °F 78% 30.14 in 10.0 mi SE 4.6 mph - N/A   Clear
1:15 AM 73.4 °F - 64.4 °F 73% 30.15 in 10.0 mi Calm Calm - N/A   Clear
1:36 AM 71.6 °F - 64.4 °F 78% 30.15 in 10.0 mi South 3.5 mph - N/A   Clear
1:55 AM 71.6 °F - 64.4 °F 78% 30.15 in 10.0 mi South 3.5 mph - N/A   Clear
2:15 AM 73.4 °F - 64.4 °F 73% 30.15 in 10.0 mi Calm Calm - N/A   Clear
2:36 AM 69.8 °F - 64.4 °F 83% 30.16 in 10.0 mi Calm Calm - N/A   Clear
2:55 AM 69.8 °F - 64.4 °F 83% 30.17 in 10.0 mi Calm Calm - N/A   Clear
3:16 AM 69.8 °F - 64.4 °F 83% 30.16 in 10.0 mi Calm Calm - N/A   Clear
3:35 AM 69.8 °F - 62.6 °F 78% 30.15 in 10.0 mi Calm Calm - N/A   Clear
3:55 AM 68.0 °F - 64.4 °F 88% 30.15 in 10.0 mi SE 3.5 mph - N/A   Clear
4:16 AM 68.0 °F - 64.4 °F 88% 30.15 in 10.0 mi Calm Calm - N/A   Clear
4:35 AM 68.0 °F - 64.4 °F 88% 30.15 in 10.0 mi Calm Calm - N/A   Clear
4:55 AM 68.0 °F - 64.4 °F 88% 30.15 in 10.0 mi Calm Calm - N/A   Clear
5:16 AM 68.0 °F - 64.4 °F 88% 30.15 in 7.0 mi Calm Calm - N/A   Clear
5:36 AM 68.0 °F - 64.4 °F 88% 30.15 in 10.0 mi Calm Calm - N/A   Clear
5:55 AM 66.2 °F - 64.4 °F 94% 30.15 in 7.0 mi Calm Calm - N/A   Clear
6:16 AM 66.2 °F - 64.4 °F 94% 30.15 in 7.0 mi Calm Calm - N/A   Clear
6:35 AM 66.2 °F - 64.4 °F 94% 30.15 in 5.0 mi Calm Calm - N/A   Clear
6:55 AM 66.2 °F - 64.4 °F 94% 30.17 in 7.0 mi Calm Calm - N/A   Clear
7:16 AM 68.0 °F - 66.2 °F 94% 30.17 in 7.0 mi Calm Calm - N/A   Clear
7:35 AM 69.8 °F - 68.0 °F 94% 30.18 in 7.0 mi Calm Calm - N/A   Clear
7:55 AM 71.6 °F - 68.0 °F 88% 30.18 in 10.0 mi Calm Calm - N/A   Clear
8:16 AM 73.4 °F - 68.0 °F 83% 30.19 in 10.0 mi SW 3.5 mph - N/A   Clear
8:35 AM 77.0 °F - 69.8 °F 78% 30.19 in 10.0 mi Calm Calm - N/A   Clear
8:55 AM 77.0 °F - 68.0 °F 74% 30.19 in 10.0 mi WSW 3.5 mph - N/A   Clear
9:16 AM 78.8 °F - 68.0 °F 69% 30.20 in 10.0 mi WSW 5.8 mph - N/A   Clear
9:35 AM 78.8 °F - 68.0 °F 69% 30.21 in 10.0 mi SW 6.9 mph - N/A   Scattered Clouds
9:55 AM 78.8 °F - 68.0 °F 69% 30.21 in 10.0 mi SW 6.9 mph - N/A   Scattered Clouds
10:16 AM 80.6 °F 83.9 °F 69.8 °F 70% 30.21 in 10.0 mi SSW 4.6 mph - N/A   Scattered Clouds
10:35 AM 82.4 °F 85.4 °F 68.0 °F 62% 30.20 in 10.0 mi WSW 8.1 mph - N/A   Scattered Clouds
10:55 AM 82.4 °F 85.4 °F 68.0 °F 62% 30.20 in 10.0 mi WSW 8.1 mph - N/A   Scattered Clouds
11:16 AM 82.4 °F 85.4 °F 68.0 °F 62% 30.20 in 10.0 mi SW 8.1 mph - N/A   Scattered Clouds
11:35 AM 84.2 °F 87.3 °F 68.0 °F 58% 30.20 in 10.0 mi WSW 9.2 mph - N/A   Scattered Clouds
11:55 AM 84.2 °F 87.3 °F 68.0 °F 58% 30.20 in 10.0 mi WSW 9.2 mph - N/A   Scattered Clouds
12:16 PM 86.0 °F 89.4 °F 68.0 °F 55% 30.19 in 10.0 mi SSW 9.2 mph - N/A   Clear
12:35 PM 86.0 °F 89.4 °F 68.0 °F 55% 30.19 in 10.0 mi SW 9.2 mph - N/A   Clear
12:55 PM 87.8 °F 90.4 °F 66.2 °F 49% 30.18 in 10.0 mi WSW 11.5 mph - N/A   Scattered Clouds
1:16 PM 86.0 °F 88.2 °F 66.2 °F 51% 30.18 in 10.0 mi WSW 9.2 mph - N/A   Scattered Clouds
1:35 PM 87.8 °F 89.4 °F 64.4 °F 46% 30.18 in 10.0 mi SW 5.8 mph - N/A   Scattered Clouds
1:55 PM 87.8 °F 89.4 °F 64.4 °F 46% 30.17 in 10.0 mi WSW 5.8 mph - N/A   Scattered Clouds
2:16 PM 87.8 °F 89.4 °F 64.4 °F 46% 30.17 in 10.0 mi SSW 6.9 mph - N/A   Scattered Clouds
2:35 PM 87.8 °F 89.4 °F 64.4 °F 46% 30.16 in 10.0 mi SSW 8.1 mph - N/A   Scattered Clouds
2:55 PM 89.6 °F 90.1 °F 62.6 °F 40% 30.16 in 10.0 mi SSW 5.8 mph - N/A   Scattered Clouds
3:16 PM 89.6 °F 91.1 °F 64.4 °F 43% 30.15 in 10.0 mi SW 9.2 mph - N/A   Clear
3:35 PM 89.6 °F 91.1 °F 64.4 °F 43% 30.15 in 10.0 mi South 8.1 mph - N/A   Scattered Clouds
3:56 PM 89.6 °F 91.1 °F 64.4 °F 43% 30.13 in 10.0 mi WSW 8.1 mph - N/A   Scattered Clouds
4:16 PM 87.8 °F 89.4 °F 64.4 °F 46% 30.12 in 10.0 mi SSW 5.8 mph - N/A   Scattered Clouds
4:35 PM 87.8 °F 89.4 °F 64.4 °F 46% 30.11 in 10.0 mi South 5.8 mph - N/A   Scattered Clouds
4:56 PM 89.6 °F 91.1 °F 64.4 °F 43% 30.10 in 10.0 mi SW 6.9 mph - N/A   Mostly Cloudy
5:16 PM 87.8 °F 88.5 °F 62.6 °F 43% 30.10 in 10.0 mi South 6.9 mph - N/A   Mostly Cloudy
5:35 PM 86.0 °F 86.6 °F 62.6 °F 45% 30.09 in 10.0 mi South 6.9 mph - N/A   Scattered Clouds
5:55 PM 87.8 °F 89.4 °F 64.4 °F 46% 30.08 in 10.0 mi South 5.8 mph - N/A   Clear
6:16 PM 87.8 °F 88.5 °F 62.6 °F 43% 30.08 in 10.0 mi SSW 5.8 mph - N/A   Clear
6:35 PM 87.8 °F 88.5 °F 62.6 °F 43% 30.08 in 10.0 mi South 4.6 mph - N/A   Scattered Clouds
6:56 PM 87.8 °F 88.5 °F 62.6 °F 43% 30.09 in 10.0 mi WSW 6.9 mph - N/A   Scattered Clouds
7:16 PM 87.8 °F 88.5 °F 62.6 °F 43% 30.08 in 10.0 mi SSW 5.8 mph - N/A   Scattered Clouds
7:35 PM 86.0 °F 86.6 °F 62.6 °F 45% 30.09 in 10.0 mi SSW 4.6 mph - N/A   Clear
7:56 PM 84.2 °F 85.6 °F 64.4 °F 51% 30.10 in 10.0 mi WNW 8.1 mph - N/A   Mostly Cloudy
8:16 PM 80.6 °F 82.3 °F 64.4 °F 58% 30.10 in 10.0 mi WNW 10.4 mph - N/A   Scattered Clouds
8:35 PM 80.6 °F 82.7 °F 66.2 °F 61% 30.11 in 10.0 mi WNW 11.5 mph - N/A   Clear
8:56 PM 78.8 °F - 64.4 °F 61% 30.11 in 10.0 mi West 8.1 mph - N/A   Clear
9:16 PM 78.8 °F - 64.4 °F 61% 30.11 in 10.0 mi West 5.8 mph - N/A   Clear
9:35 PM 77.0 °F - 64.4 °F 65% 30.11 in 10.0 mi West 3.5 mph - N/A   Clear
9:56 PM 77.0 °F - 66.2 °F 69% 30.11 in 10.0 mi Calm Calm - N/A   Clear
10:16 PM 73.4 °F - 66.2 °F 78% 30.11 in 10.0 mi Calm Calm - N/A   Clear
10:35 PM 73.4 °F - 64.4 °F 73% 30.11 in 10.0 mi Calm Calm - N/A   Clear
10:56 PM 73.4 °F - 66.2 °F 78% 30.12 in 10.0 mi Calm Calm - N/A   Clear
11:16 PM 73.4 °F - 66.2 °F 78% 30.12 in 10.0 mi Calm Calm - N/A   Clear
11:35 PM 71.6 °F - 66.2 °F 83% 30.13 in 10.0 mi Calm Calm - N/A   Clear
11:56 PM 69.8 °F - 66.2 °F 88% 30.13 in 10.0 mi Calm Calm - N/A   Clear